• In Uzbekistan
  • List of Countries
  • For 7 days
  • Water Temperature
  • Satellite Maps
  • Weather Map
  • Weather Widgets
  • user-avatar
    Login

    Hourly Weather Changchun

    Today, 16 January, Wednesday

    Time Temperature Precipitation Wind Pressure Humidity
    00:00 -18°C° 0 mm 6 mps 747 mmHg 26%
    01:00 -18°C° 0 mm 6 mps 747 mmHg 26%
    02:00 -18°C° 0 mm 6 mps 746 mmHg 26%
    03:00 -18°C° 0 mm 6 mps 746 mmHg 25%
    04:00 -19°C° 0 mm 7 mps 745 mmHg 25%
    05:00 -19°C° 0 mm 7 mps 745 mmHg 25%
    06:00 -19°C° 0 mm 7 mps 744 mmHg 24%
    07:00 -19°C° 0 mm 7 mps 744 mmHg 24%
    08:00 -18°C° 0 mm 5 mps 744 mmHg 30%
    09:00 -17°C° 0 mm 5 mps 744 mmHg 28%
    10:00 -16°C° 0 mm 6 mps 743 mmHg 26%
    11:00 -14°C° 0 mm 6 mps 743 mmHg 24%
    12:00 -14°C° 0 mm 6 mps 743 mmHg 24%
    13:00 -12°C° 0 mm 6 mps 743 mmHg 25%
    14:00 -11°C° 0 mm 6 mps 743 mmHg 25%
    15:00 -12°C° 0 mm 5 mps 743 mmHg 30%
    16:00 -11°C° 0 mm 4 mps 743 mmHg 35%
    17:00 -12°C° 0 mm 3 mps 743 mmHg 40%
    18:00 -12°C° 0 mm 3 mps 743 mmHg 43%
    19:00 -13°C° 0 mm 3 mps 743 mmHg 46%
    20:00 -12°C° 0 mm 2 mps 744 mmHg 50%
    21:00 -13°C° 0 mm 2 mps 744 mmHg 51%
    22:00 -13°C° 0 mm 2 mps 744 mmHg 53%
    23:00 -14°C° 0 mm 2 mps 744 mmHg 54%

    Tomorrow, 17 January, Thursday

    Time Temperature Precipitation Wind Pressure Humidity
    00:00 -14°C° 0 mm 2 mps 745 mmHg 55%
    01:00 -15°C° 0 mm 2 mps 745 mmHg 56%
    02:00 -16°C° 0 mm 3 mps 746 mmHg 56%
    03:00 -17°C° 0 mm 3 mps 746 mmHg 59%
    04:00 -17°C° 0 mm 2 mps 746 mmHg 61%
    05:00 -18°C° 0 mm 2 mps 747 mmHg 64%
    06:00 -18°C° 0 mm 2 mps 747 mmHg 64%
    07:00 -18°C° 0 mm 2 mps 748 mmHg 65%
    08:00 -17°C° 0 mm 1 mps 749 mmHg 66%
    09:00 -18°C° 0 mm 2 mps 749 mmHg 57%
    10:00 -17°C° 0 mm 2 mps 750 mmHg 48%
    11:00 -16°C° 0 mm 2 mps 751 mmHg 39%
    12:00 -16°C° 0 mm 2 mps 751 mmHg 35%
    13:00 -15°C° 0 mm 2 mps 750 mmHg 31%
    14:00 -15°C° 0 mm 2 mps 750 mmHg 27%
    15:00 -13°C° 0 mm 1 mps 750 mmHg 28%
    16:00 -13°C° 0 mm 1 mps 751 mmHg 29%
    17:00 -14°C° 0 mm 0 mps 751 mmHg 30%
    18:00 -14°C° 0 mm 0 mps 751 mmHg 32%
    19:00 -14°C° 0 mm 0 mps 751 mmHg 33%
    20:00 -15°C° 0 mm 0 mps 751 mmHg 34%
    21:00 -15°C° 0 mm 1 mps 751 mmHg 35%
    22:00 -15°C° 0 mm 1 mps 751 mmHg 37%
    23:00 -15°C° 0 mm 1 mps 751 mmHg 38%

    Day after tomorrow, 18 January, Friday

    Time Temperature Precipitation Wind Pressure Humidity
    00:00 -15°C° 0 mm 1 mps 751 mmHg 39%
    01:00 -15°C° 0 mm 1 mps 751 mmHg 40%
    02:00 -15°C° 0 mm 1 mps 750 mmHg 41%
    03:00 -15°C° 0 mm 1 mps 750 mmHg 41%
    04:00 -15°C° 0 mm 1 mps 750 mmHg 40%
    05:00 -16°C° 0 mm 1 mps 749 mmHg 40%
    06:00 -15°C° 0 mm 1 mps 749 mmHg 39%
    07:00 -17°C° 0 mm 2 mps 749 mmHg 39%
    08:00 -17°C° 0 mm 2 mps 749 mmHg 38%
    09:00 -15°C° 0 mm 2 mps 749 mmHg 33%
    10:00 -13°C° 0 mm 2 mps 749 mmHg 28%
    11:00 -12°C° 0 mm 2 mps 749 mmHg 23%
    12:00 -10°C° 0 mm 2 mps 748 mmHg 22%
    13:00 -8°C° 0 mm 1 mps 748 mmHg 21%
    14:00 -7°C° 0 mm 1 mps 747 mmHg 20%
    15:00 -8°C° 0 mm 1 mps 747 mmHg 23%
    16:00 -9°C° 0 mm 1 mps 747 mmHg 26%
    17:00 -9°C° 0 mm 1 mps 747 mmHg 29%
    18:00 -10°C° 0 mm 1 mps 747 mmHg 31%
    19:00 -10°C° 0 mm 0 mps 747 mmHg 33%
    20:00 -11°C° 0 mm 0 mps 747 mmHg 35%
    21:00 -11°C° 0 mm 0 mps 747 mmHg 35%
    22:00 -11°C° 0 mm 0 mps 747 mmHg 35%
    23:00 -11°C° 0 mm 0 mps 747 mmHg 35%

    19 January, Saturday

    Time Temperature Precipitation Wind Pressure Humidity
    00:00 -12°C° 0 mm 1 mps 747 mmHg 35%
    01:00 -12°C° 0 mm 1 mps 747 mmHg 34%
    02:00 -12°C° 0 mm 1 mps 747 mmHg 34%
    03:00 -15°C° 0 mm 2 mps 747 mmHg 35%
    04:00 -15°C° 0 mm 2 mps 747 mmHg 35%
    05:00 -15°C° 0 mm 2 mps 747 mmHg 36%
    06:00 -15°C° 0 mm 2 mps 747 mmHg 38%
    07:00 -16°C° 0 mm 3 mps 747 mmHg 40%
    08:00 -17°C° 0 mm 3 mps 747 mmHg 43%
    09:00 -15°C° 0 mm 3 mps 746 mmHg 44%
    10:00 -15°C° 0 mm 4 mps 746 mmHg 45%
    11:00 -13°C° 0 mm 5 mps 746 mmHg 46%
    12:00 -12°C° 0 mm 5 mps 746 mmHg 44%
    13:00 -11°C° 0 mm 5 mps 745 mmHg 43%
    14:00 -10°C° 0 mm 6 mps 745 mmHg 42%
    15:00 -11°C° 0 mm 5 mps 745 mmHg 44%
    16:00 -11°C° 0 mm 4 mps 745 mmHg 46%
    17:00 -10°C° 0 mm 3 mps 745 mmHg 48%
    18:00 -12°C° 0 mm 3 mps 745 mmHg 49%
    19:00 -12°C° 0 mm 4 mps 745 mmHg 49%
    20:00 -14°C° 0 mm 4 mps 746 mmHg 50%
    21:00 -14°C° 0 mm 4 mps 746 mmHg 52%
    22:00 -15°C° 0 mm 4 mps 747 mmHg 54%
    23:00 -16°C° 0 mm 4 mps 747 mmHg 56%

    20 January, Sunday

    Time Temperature Precipitation Wind Pressure Humidity
    00:00 -16°C° 0 mm 4 mps 747 mmHg 58%
    01:00 -17°C° 0 mm 4 mps 748 mmHg 60%
    02:00 -17°C° 0 mm 4 mps 749 mmHg 62%
    03:00 -16°C° 0 mm 3 mps 749 mmHg 65%
    04:00 -17°C° 0 mm 3 mps 749 mmHg 67%
    05:00 -16°C° 0 mm 2 mps 749 mmHg 70%
    06:00 -16°C° 0 mm 2 mps 750 mmHg 68%
    07:00 -16°C° 0 mm 2 mps 750 mmHg 66%
    08:00 -16°C° 0 mm 2 mps 750 mmHg 64%
    09:00 -15°C° 0 mm 3 mps 750 mmHg 55%
    10:00 -15°C° 0 mm 4 mps 749 mmHg 47%
    11:00 -13°C° 0 mm 5 mps 749 mmHg 38%
    12:00 -12°C° 0 mm 6 mps 748 mmHg 35%
    13:00 -12°C° 0 mm 7 mps 747 mmHg 31%
    14:00 -11°C° 0 mm 7 mps 746 mmHg 28%
    15:00 -10°C° 0 mm 6 mps 746 mmHg 29%
    16:00 -11°C° 0 mm 6 mps 746 mmHg 31%
    17:00 -11°C° 0 mm 5 mps 745 mmHg 32%
    18:00 -11°C° 0 mm 5 mps 745 mmHg 33%
    19:00 -11°C° 0 mm 5 mps 745 mmHg 33%
    20:00 -12°C° 0 mm 5 mps 744 mmHg 34%
    21:00 -12°C° 0 mm 5 mps 744 mmHg 36%
    22:00 -12°C° 0 mm 5 mps 744 mmHg 37%
    23:00 -12°C° 0 mm 5 mps 744 mmHg 38%

    21 January, Monday

    Time Temperature Precipitation Wind Pressure Humidity
    00:00 -12°C° 0 mm 4 mps 743 mmHg 43%
    01:00 -12°C° 0 mm 4 mps 743 mmHg 47%
    02:00 -12°C° 0 mm 4 mps 743 mmHg 51%
    03:00 -14°C° 0 mm 4 mps 743 mmHg 53%
    04:00 -13°C° 0 mm 3 mps 742 mmHg 55%
    05:00 -13°C° 0 mm 3 mps 742 mmHg 57%
    06:00 -13°C° 0 mm 3 mps 742 mmHg 55%
    07:00 -12°C° 0 mm 3 mps 743 mmHg 54%
    08:00 -12°C° 0 mm 3 mps 743 mmHg 52%
    09:00 -10°C° 0 mm 3 mps 743 mmHg 48%
    10:00 -9°C° 0 mm 3 mps 743 mmHg 44%
    11:00 -8°C° 0 mm 3 mps 743 mmHg 40%
    12:00 -8°C° 0 mm 3 mps 743 mmHg 40%
    13:00 -7°C° 0 mm 3 mps 743 mmHg 41%
    14:00 -7°C° 0 mm 3 mps 743 mmHg 42%
    15:00 -8°C° 0 mm 3 mps 743 mmHg 50%
    16:00 -10°C° 0 mm 4 mps 744 mmHg 59%
    17:00 -10°C° 0 mm 4 mps 744 mmHg 67%
    18:00 -11°C° 0 mm 4 mps 745 mmHg 70%
    19:00 -12°C° 0 mm 4 mps 745 mmHg 73%
    20:00 -14°C° 0 mm 4 mps 745 mmHg 76%
    21:00 -14°C° 0 mm 4 mps 746 mmHg 74%
    22:00 -15°C° 0 mm 4 mps 746 mmHg 71%
    23:00 -15°C° 0 mm 3 mps 746 mmHg 69%
    Show more